TimePST,TemperatureF,Dew PointF,Humidity,Sea Level PressureIn,VisibilityMPH,Wind Direction,Wind SpeedMPH,Gust SpeedMPH,PrecipitationIn,Events,Conditions,WindDirDegrees,DateUTC
12:53 AM,32.0,27.0,82,30.31,10.0,NW,6.9,-,N/A,,Overcast,320,2013-01-31 08:53:00
1:53 AM,34.0,27.0,75,30.32,10.0,Calm,Calm,-,N/A,,Overcast,0,2013-01-31 09:53:00
2:53 AM,28.9,24.1,82,30.32,10.0,WNW,9.2,-,N/A,,Scattered Clouds,290,2013-01-31 10:53:00
3:53 AM,30.0,25.0,82,30.32,10.0,NW,4.6,-,N/A,,Overcast,320,2013-01-31 11:53:00
4:53 AM,27.0,23.0,85,30.34,10.0,NNW,3.5,-,N/A,,Mostly Cloudy,330,2013-01-31 12:53:00
5:53 AM,28.0,23.0,81,30.35,10.0,NW,3.5,-,N/A,,Clear,310,2013-01-31 13:53:00
6:53 AM,18.0,16.0,92,30.42,10.0,NE,3.5,-,N/A,,Partly Cloudy,40,2013-01-31 14:53:00
7:53 AM,23.0,19.0,85,30.41,10.0,South,6.9,-,N/A,,Scattered Clouds,170,2013-01-31 15:53:00
8:53 AM,30.9,24.1,76,30.39,10.0,SE,5.8,-,N/A,,Clear,130,2013-01-31 16:53:00
9:53 AM,34.0,25.0,70,30.37,10.0,South,3.5,-,N/A,,Clear,190,2013-01-31 17:53:00
10:53 AM,39.0,25.0,57,30.34,10.0,Calm,Calm,-,N/A,,Clear,0,2013-01-31 18:53:00
11:53 AM,39.9,25.0,55,30.30,10.0,Calm,Calm,-,N/A,,Clear,0,2013-01-31 19:53:00
12:53 PM,41.0,26.1,55,30.26,10.0,Calm,Calm,-,N/A,,Clear,0,2013-01-31 20:53:00
1:53 PM,41.0,27.0,57,30.24,10.0,ENE,5.8,-,N/A,,Clear,70,2013-01-31 21:53:00
2:53 PM,43.0,27.0,53,30.26,10.0,Calm,Calm,-,N/A,,Clear,0,2013-01-31 22:53:00
3:53 PM,42.1,27.0,55,30.26,10.0,North,5.8,-,N/A,,Clear,10,2013-01-31 23:53:00
4:53 PM,35.1,27.0,72,30.30,10.0,Calm,Calm,-,N/A,,Clear,0,2013-02-01 00:53:00
5:53 PM,30.9,26.1,82,30.31,10.0,Variable,3.5,-,N/A,,Clear,0,2013-02-01 01:53:00
6:53 PM,24.1,21.0,88,30.41,10.0,Calm,Calm,-,N/A,,Clear,0,2013-02-01 02:53:00
7:53 PM,24.1,21.0,88,30.39,10.0,South,10.4,-,N/A,,Clear,170,2013-02-01 03:53:00
8:53 PM,21.0,18.0,88,30.37,10.0,South,9.2,-,N/A,,Clear,170,2013-02-01 04:53:00
9:53 PM,19.9,18.0,92,30.35,10.0,South,11.5,-,N/A,,Clear,170,2013-02-01 05:53:00
10:53 PM,19.9,17.1,89,30.33,10.0,South,12.7,-,N/A,,Clear,170,2013-02-01 06:53:00
11:53 PM,19.0,16.0,88,30.32,10.0,South,12.7,-,N/A,,Clear,170,2013-02-01 07:53:00